Location: Recife
(8.0585°S, 34.8848°W)
Time: 11:42:34
(UTC-03:00)

Courier 1B - Pass Details

Date: 17 April 2026
Orbit: 962 x 1209 km, 28.3° (Epoch: 7 May)

Event Time Altitude Azimuth Distance (km) Brightness Sun altitude
Rises 11:13:46 0° 228° (SW) 4,095 10.6 71.3°
Reaches altitude 10° 11:17:29 10° 213° (SSW) 3,106 10.1 71.3°
Maximum altitude 11:23:05 21° 166° (SSE) 2,315 9.6 71.3°
Drops below altitude 10° 11:28:30 10° 119° (ESE) 2,988 10.1 71.2°
Sets 11:31:59 0° 103° (ESE) 3,898 10.6 71.0°
